DW6513 Weather Reports


time (UTC)temp
C
wind
direction
speed
KPH
gust
KPH
rain 1hr
cm
rain 24hr
cm
rain mn
cm
humidity
%
barometer
mb
20260510233804 20 191 3.2 8.0 0.00 0.00 0.00 31 1019.9
20260510232804 21 11 1.6 3.2 0.00 0.00 0.00 31 1020.0
20260510231804 21 55 3.2 8.0 0.00 0.00 0.00 30 1020.0
20260510231304 21 55 4.8 8.0 0.00 0.00 0.00 30 1020.0
20260510230804 21 348 3.2 9.7 0.00 0.00 0.00 30 1019.5
20260510230304 21 20 0.0 3.2 0.00 0.00 0.00 33 1019.4
20260510215803 21 11 0.0 0.0 0.00 0.00 0.00 33 1019.4
20260510215306 21 235 0.0 4.8 0.00 0.00 0.00 32 1019.4
20260510214804 21 55 1.6 4.8 0.00 0.00 0.00 32 1019.7
20260510214303 21 37 0.0 4.8 0.00 0.00 0.00 32 1019.7
20260510213803 21 213 1.6 0.0 0.00 0.00 0.00 31 1019.7
20260510213304 21 350 1.6 8.0 0.00 0.00 0.00 31 1019.7
20260510212306 22 258 3.2 8.0 0.00 0.00 0.00 30 1019.6
20260510211803 21 235 4.8 11.3 0.00 0.00 0.00 29 1019.6
20260510211303 22 55 8.0 11.3 0.00 0.00 0.00 29 1019.6
20260510210304 23 114 3.2 11.3 0.00 0.00 0.00 28 1019.4
20260510205803 23 55 3.2 11.3 0.00 0.00 0.00 29 1019.4
20260510205306 22 359 3.2 3.2 0.00 0.00 0.00 29 1019.4
20260510204804 22 325 3.2 12.9 0.00 0.00 0.00 31 1019.1
20260510204303 22 49 1.6 12.9 0.00 0.00 0.00 31 1019.1
20260510203803 22 325 3.2 4.8 0.00 0.00 0.00 32 1019.1
20260510203304 22 165 3.2 12.9 0.00 0.00 0.00 30 1019.1
20260510202804 23 33 4.8 4.8 0.00 0.00 0.00 33 1019.2
20260510202306 22 269 8.0 16.1 0.00 0.00 0.00 32 1019.2
20260510201803 22 11 4.8 16.1 0.00 0.00 0.00 30 1019.2
20260510201303 22 41 3.2 16.1 0.00 0.00 0.00 32 1019.2
20260510200804 22 11 3.2 16.1 0.00 0.00 0.00 32 1019.1
20260510200303 22 321 4.8 4.8 0.00 0.00 0.00 32 1019.1
20260510195803 23 168 4.8 16.1 0.00 0.00 0.00 31 1019.1
20260510195306 23 115 4.8 16.1 0.00 0.00 0.00 31 1019.1
20260510194303 21 296 3.2 9.7 0.00 0.00 0.00 35 1019.6
20260510193803 21 347 1.6 9.7 0.00 0.00 0.00 35 1019.6
20260510192306 21 203 3.2 4.8 0.00 0.00 0.00 33 1019.4
20260510191803 21 257 4.8 8.0 0.00 0.00 0.00 31 1019.4
20260510190803 23 303 3.2 8.0 0.00 0.00 0.00 32 1019.4
20260510190304 23 325 4.8 3.2 0.00 0.00 0.00 33 1019.4
20260510185803 22 33 4.8 9.7 0.00 0.00 0.00 33 1019.4
20260510184803 21 347 3.2 11.3 0.00 0.00 0.00 34 1019.1
20260510184304 21 354 3.2 11.3 0.00 0.00 0.00 34 1019.1
20260510183304 22 165 3.2 8.0 0.00 0.00 0.00 37 1019.1
20260510182804 21 145 4.8 14.5 0.00 0.00 0.00 36 1019.4
20260510182306 21 328 4.8 14.5 0.00 0.00 0.00 34 1019.4
20260510181803 22 123 8.0 8.0 0.00 0.00 0.00 36 1019.4
20260510181303 21 303 8.0 25.7 0.00 0.00 0.00 34 1019.4
20260510180803 21 303 4.8 9.7 0.00 0.00 0.00 35 1019.3
20260510180304 22 283 3.2 12.9 0.00 0.00 0.00 36 1019.3
20260510175803 21 190 3.2 11.3 0.00 0.00 0.00 37 1019.3
20260510174304 20 303 4.8 19.3 0.00 0.00 0.00 39 1019.7
20260510173803 20 55 4.8 9.7 0.00 0.00 0.00 38 1019.7
20260510173303 19 303 6.4 11.3 0.00 0.00 0.00 39 1019.7
20260510171803 19 100 1.6 3.2 0.00 0.00 0.00 39 1019.6
20260510171303 18 141 1.6 4.8 0.00 0.00 0.00 39 1019.6
20260510170804 18 257 1.6 3.2 0.00 0.00 0.00 37 1019.6
20260510170304 18 228 3.2 9.7 0.00 0.00 0.00 37 1019.6
20260510165306 19 163 8.0 19.3 0.00 0.00 0.00 37 1019.6
20260510164803 19 347 8.0 19.3 0.00 0.00 0.00 36 1019.7
20260510164304 20 334 3.2 11.3 0.00 0.00 0.00 39 1019.7
20260510162804 19 280 8.0 22.5 0.00 0.00 0.00 39 1019.9
20260510161803 18 325 3.2 8.0 0.00 0.00 0.00 38 1019.9
20260510161303 18 208 4.8 19.3 0.00 0.00 0.00 38 1019.9
20260510160804 18 325 4.8 19.3 0.00 0.00 0.00 37 1019.7
20260510160303 18 277 4.8 11.3 0.00 0.00 0.00 37 1019.7
20260510155803 18 280 4.8 19.3 0.00 0.00 0.00 37 1019.7
20260510155305 19 264 4.8 11.3 0.00 0.00 0.00 37 1019.7
20260510154804 19 190 4.8 11.3 0.00 0.00 0.00 38 1019.1
20260510154303 18 313 3.2 11.3 0.00 0.00 0.00 38 1019.1
20260510153804 18 347 3.2 24.1 0.00 0.00 0.00 39 1019.1
20260510153304 18 32 3.2 24.1 0.00 0.00 0.00 39 1019.1
20260510152803 18 190 3.2 8.0 0.00 0.00 0.00 41 1019.1
20260510152307 18 20 3.2 8.0 0.00 0.00 0.00 41 1019.1
20260510151804 18 303 3.2 4.8 0.00 0.00 0.00 43 1019.1
20260510151303 18 311 3.2 9.7 0.00 0.00 0.00 44 1019.1
20260510150804 18 145 1.6 8.0 0.00 0.00 0.00 44 1019.2
20260510145804 18 325 8.0 9.7 0.00 0.00 0.00 45 1019.2
20260510144303 17 196 4.8 14.5 0.00 0.00 0.00 47 1018.6
20260510143803 17 347 4.8 8.0 0.00 0.00 0.00 48 1018.6
20260510143303 17 344 4.8 9.7 0.00 0.00 0.00 50 1018.6
20260510142804 17 347 4.8 9.7 0.00 0.00 0.00 52 1018.6
20260510142306 17 55 3.2 14.5 0.00 0.00 0.00 52 1018.6
20260510141304 16 354 3.2 20.9 0.00 0.00 0.00 54 1019.0
20260510140803 16 347 1.6 12.9 0.00 0.00 0.00 55 1019.0
20260510135803 16 280 3.2 8.0 0.00 0.00 0.00 56 1019.0
20260510134804 16 347 8.0 12.9 0.00 0.00 0.00 56 1019.2
20260510133803 16 347 4.8 14.5 0.00 0.00 0.00 57 1019.2
20260510133303 16 330 1.6 4.8 0.00 0.00 0.00 59 1019.2
20260510132804 15 257 3.2 4.8 0.00 0.00 0.00 61 1018.7
20260510132306 15 347 3.2 11.3 0.00 0.00 0.00 63 1018.7
20260510131803 15 347 3.2 11.3 0.00 0.00 0.00 62 1018.7
20260510131304 15 303 4.8 11.3 0.00 0.00 0.00 64 1018.7
20260510130803 15 10 3.2 11.3 0.00 0.00 0.00 64 1018.7
20260510130304 15 321 1.6 12.9 0.00 0.00 0.00 65 1018.7
20260510125804 15 347 1.6 4.8 0.00 0.00 0.00 65 1018.7
20260510125307 15 330 1.6 4.8 0.00 0.00 0.00 67 1018.7
20260510124803 14 325 1.6 8.0 0.00 0.00 0.00 67 1018.7
20260510124305 14 317 1.6 8.0 0.00 0.00 0.00 69 1018.7
20260510123804 14 347 1.6 3.2 0.00 0.00 0.00 70 1018.7
20260510123304 14 5 0.0 8.0 0.00 0.00 0.00 70 1018.7
20260510122804 14 347 1.6 4.8 0.00 0.00 0.00 71 1018.5
20260510121807 14 303 1.6 3.2 0.00 0.00 0.00 72 1018.5
20260510121304 14 242 1.6 4.8 0.00 0.00 0.00 74 1018.5
20260510120805 14 10 0.0 4.8 0.00 0.00 0.00 75 1017.9
20260510120304 14 347 1.6 4.8 0.00 0.00 0.00 75 1017.9
20260510115815 14 10 1.6 8.0 0.00 0.00 0.00 77 1017.9
20260510115306 14 329 1.6 12.9 0.00 0.00 0.00 77 1017.9
20260510114805 14 325 1.6 12.9 0.00 0.00 0.00 79 1017.4
20260510113304 14 23 1.6 9.7 0.00 0.00 0.00 83 1017.4
20260510112306 13 319 1.6 3.2 0.00 0.00 0.00 86 1017.1
20260510111804 13 303 1.6 9.7 0.00 0.00 0.00 88 1017.1
20260510111304 13 335 1.6 12.9 0.00 0.00 0.00 89 1017.1
20260510110804 13 325 0.0 8.0 0.00 0.00 0.00 92 1016.6
20260510110303 13 356 0.0 0.0 0.00 0.00 0.00 92 1016.6
20260510105804 13 257 0.0 0.0 0.00 0.00 0.00 93 1016.6
20260510105306 13 248 0.0 0.0 0.00 0.00 0.00 93 1016.6
20260510104804 13 303 0.0 0.0 0.00 0.00 0.00 93 1016.6
20260510104303 13 313 0.0 0.0 0.00 0.00 0.00 93 1016.6
20260510103804 14 303 0.0 0.0 0.00 0.00 0.00 93 1016.6
20260510103304 14 251 0.0 0.0 0.00 0.00 0.00 93 1016.6
20260510102804 14 257 0.0 4.8 0.00 0.00 0.00 93 1016.6
20260510102306 14 325 1.6 4.8 0.00 0.00 0.00 93 1016.6
20260510101804 14 280 1.6 0.0 0.00 0.00 0.00 93 1016.6
20260510101304 14 199 1.6 4.8 0.00 0.00 0.00 93 1016.6
20260510100804 14 10 1.6 8.0 0.00 0.00 0.00 93 1016.8
20260510100308 14 4 1.6 8.0 0.00 0.00 0.00 92 1016.8
20260510095804 14 190 0.0 0.0 0.00 0.00 0.00 92 1016.8
20260510094804 15 325 1.6 9.7 0.00 0.00 0.00 92 1016.5
20260510094304 15 347 1.6 9.7 0.00 0.00 0.00 92 1016.5
20260510093804 15 145 0.0 0.0 0.00 0.00 0.00 92 1016.5
20260510093304 15 181 0.0 0.0 0.00 0.00 0.00 92 1016.5
20260510092811 15 325 0.0 0.0 0.00 0.00 0.00 92 1015.6
20260510092307 15 123 0.0 0.0 0.00 0.00 0.00 91 1015.6
20260510091804 15 145 0.0 0.0 0.00 0.00 0.00 91 1015.6
20260510091303 15 145 0.0 0.0 0.00 0.00 0.00 91 1015.6
20260510090804 15 145 0.0 0.0 0.00 0.00 0.00 91 1015.1
20260510090304 15 145 0.0 0.0 0.00 0.00 0.00 91 1015.1
20260510085804 15 190 0.0 0.0 0.00 0.00 0.00 91 1015.1
20260510085306 15 190 0.0 0.0 0.00 0.00 0.00 90 1015.1
20260510084805 15 190 0.0 0.0 0.00 0.00 0.00 90 1015.0
20260510084304 15 190 0.0 0.0 0.00 0.00 0.00 90 1015.0
20260510083804 15 190 0.0 0.0 0.00 0.00 0.00 90 1015.0
20260510083304 15 190 0.0 0.0 0.00 0.00 0.00 90 1015.0
20260510082803 15 190 0.0 3.2 0.00 0.00 0.00 89 1014.5
20260510081805 15 325 0.0 0.0 0.00 0.00 0.00 89 1014.5
20260510081304 15 347 0.0 0.0 0.00 0.00 0.00 89 1014.5
20260510080804 15 347 0.0 0.0 0.00 0.00 0.00 89 1014.1
20260510080304 15 347 0.0 0.0 0.00 0.00 0.00 89 1014.1
20260510075804 15 347 0.0 0.0 0.00 0.00 0.00 89 1014.1
20260510075306 15 347 0.0 0.0 0.00 0.00 0.00 88 1014.1
20260510074805 15 347 0.0 0.0 0.00 0.00 0.00 88 1014.1
20260510074304 15 347 0.0 0.0 0.00 0.00 0.00 88 1014.1
20260510073806 15 167 0.0 0.0 0.00 0.00 0.00 86 1014.1
20260510073304 16 303 0.0 0.0 0.00 0.00 0.00 86 1013.8
20260510072305 16 261 0.0 3.2 0.00 0.00 0.00 86 1013.8
20260510071804 16 190 0.0 0.0 0.00 0.00 0.00 86 1013.8
20260510071304 16 325 0.0 0.0 0.00 0.00 0.00 86 1013.8
20260510070304 16 167 0.0 0.0 0.00 0.00 0.00 86 1014.3
20260510065804 16 167 0.0 0.0 0.00 0.00 0.00 86 1014.3
20260510064803 16 347 1.6 0.0 0.00 0.00 0.00 87 1014.5
20260510064304 16 314 3.2 4.8 0.00 0.00 0.00 87 1014.5
20260510063803 16 303 3.2 11.3 0.00 0.00 0.00 88 1014.5
20260510063304 16 307 1.6 11.3 0.00 0.00 0.00 89 1014.5
20260510062306 16 303 1.6 4.8 0.00 0.00 0.00 89 1014.1
20260510061304 16 318 0.0 4.8 0.00 0.00 0.00 89 1014.1
20260510060803 16 33 0.0 3.2 0.00 0.00 0.00 91 1013.6
20260510060304 17 34 0.0 0.0 0.00 0.00 0.00 91 1013.6
20260510055804 17 347 0.0 3.2 0.00 0.00 0.00 88 1013.6
20260510055306 16 297 0.0 0.0 0.00 0.00 0.00 88 1013.6
20260510054304 16 181 1.6 3.2 0.00 0.00 0.00 87 1013.3
20260510053805 16 167 1.6 8.0 0.00 0.00 0.00 87 1013.3
20260510052804 16 190 3.2 8.0 0.00 0.00 0.00 86 1014.1
20260510035306 17 42 16.1 37.0 0.00 0.00 0.00 81 1013.7
20260510034803 17 190 20.9 40.2 0.00 0.00 0.00 78 1012.3
20260510034303 18 145 24.1 64.4 0.00 0.00 0.00 73 1012.3
20260510033304 21 350 3.2 86.9 0.00 0.08 0.00 58 1012.3
20260510032802 21 33 0.0 0.0 0.00 0.15 0.00 53 1011.3
20260510031803 21 145 0.0 0.0 0.00 0.25 0.00 53 1011.3
20260510031303 21 145 0.0 0.0 0.00 0.25 0.00 53 1011.3
20260510030803 21 145 0.0 0.0 0.00 0.25 0.00 52 1010.8
20260510030302 21 145 0.0 0.0 0.00 0.25 0.00 52 1010.8
20260510025802 21 145 0.0 0.0 0.00 0.33 0.00 51 1010.8
20260510024803 21 145 0.0 0.0 0.00 0.48 0.00 51 1010.6
20260510024303 21 145 0.0 0.0 0.00 0.48 0.00 50 1010.6
20260510023803 21 145 0.0 0.0 0.00 0.48 0.00 50 1010.6
20260510022306 21 145 0.0 0.0 0.00 0.48 0.00 49 1010.2
20260510021803 21 145 0.0 0.0 0.00 0.48 0.00 48 1010.2
20260510021302 21 145 0.0 0.0 0.00 0.48 0.00 47 1010.2
20260510020303 22 145 0.0 0.0 0.00 0.48 0.00 45 1010.1
20260510015803 22 145 0.0 0.0 0.00 0.48 0.00 45 1010.1
20260510015306 22 145 0.0 0.0 0.00 0.48 0.00 44 1010.1
20260510014803 22 145 0.0 0.0 0.00 0.48 0.00 44 1009.6
20260510014303 22 145 0.0 0.0 0.00 0.48 0.00 42 1009.6
20260510013303 23 145 0.0 0.0 0.00 0.48 0.00 41 1009.6
20260510012306 23 145 0.0 0.0 0.00 0.48 0.00 38 1009.6
20260510011803 23 145 0.0 0.0 0.00 0.48 0.00 37 1009.6
20260510011303 24 145 0.0 0.0 0.00 0.48 0.00 37 1009.6
20260510010802 24 145 0.0 0.0 0.00 0.48 0.00 36 1009.2
20260510005802 25 167 0.0 0.0 0.00 0.48 0.00 36 1009.2
20260510005306 25 167 0.0 0.0 0.00 0.48 0.00 36 1009.2
20260510004802 26 167 0.0 0.0 0.00 0.48 0.00 34 1009.2
20260510004303 26 127 0.0 0.0 0.00 0.48 0.00 34 1009.2
20260510003802 26 167 0.0 0.0 0.00 0.48 0.00 34 1009.2
20260510003304 26 167 0.0 0.0 0.00 0.48 0.00 33 1009.2
20260510002803 26 167 1.6 0.0 0.00 0.48 0.00 33 1008.9
20260510002306 26 163 1.6 0.0 0.00 0.48 0.00 33 1008.9
20260510001803 26 213 1.6 4.8 0.00 0.48 0.00 32 1008.9
20260510001303 26 167 4.8 16.1 0.00 0.48 0.00 32 1008.9
20260510000803 26 100 4.8 16.1 0.00 0.48 0.00 31 1009.2
20260510000304 26 181 4.8 9.7 0.00 0.48 0.00 31 1009.2
20260509235306 26 163 4.8 11.3 0.00 0.48 0.00 31 1009.2
20260509234803 27 123 3.2 12.9 0.00 0.48 0.00 31 1008.5
20260509234303 27 136 4.8 12.9 0.00 0.48 0.00 30 1008.5